Yuba City, California, United States (95991)
Lat: 39.14N, Lon: 121.62W
Wx Zone: CAZ016
Local Info
Past Weather Observations for Tuesday, June 30, 2015

NOTE: This archive is for the closest National Weather Service station to Yuba City. Information may differ from the station used for current weather conditions.

Click here for Long-term Archive

Time Weather Temperature Dewpoint Humidity Pressure Winds Precip Visibility
23:53
Clear
82°F / 28°C 54°F / 12°C 37% 29.77 in
(1008 mb)
E 3.5 mph
(E 6 kph)
- 10SM
22:53
Clear
84°F / 29°C 57°F / 14°C 40% 29.77 in
(1008 mb)
ESE 4.6 mph
(ESE 7 kph)
- 10SM
21:53
Clear
84°F / 29°C 63°F / 17°C 48% 29.77 in
(1008 mb)
ESE 4.6 mph
(ESE 7 kph)
- 10SM
20:53
Clear
91°F / 33°C 55°F / 13°C 30% 29.77 in
(1008 mb)
S 4.6 mph
(S 7 kph)
- 10SM
19:53
Clear
91°F / 33°C 55°F / 13°C 30% 29.74 in
(1007 mb)
S 4.6 mph
(S 7 kph)
- 10SM
18:53
Clear
100°F / 38°C 52°F / 11°C 20% 29.74 in
(1007 mb)
SSE 6.9 mph
(SSE 11 kph)
- 10SM
17:53
Clear
104°F / 40°C 52°F / 11°C 17% 29.71 in
(1006 mb)
SW 6.9 mph
(SW 11 kph)
- 10SM
16:53
Clear
106°F / 41°C 52°F / 11°C 17% 29.71 in
(1006 mb)
SW 4.6 mph
(SW 7 kph)
- 10SM
14:53
Clear
102°F / 39°C 57°F / 14°C 23% 29.74 in
(1007 mb)
SSW 5.8 mph
(SSW 9 kph)
- 10SM
13:53
Clear
102°F / 39°C 57°F / 14°C 23% 29.77 in
(1008 mb)
W 5.8 mph
(W 9 kph)
- 10SM
12:53
Clear
100°F / 38°C 55°F / 13°C 22% 29.8 in
(1009 mb)
Calm - 10SM
11:53
Clear
99°F / 37°C 55°F / 13°C 24% 29.83 in
(1010 mb)
SSW 6.9 mph
(SSW 11 kph)
- 10SM
10:53
Clear
95°F / 35°C 59°F / 15°C 30% 29.83 in
(1010 mb)
SW 5.8 mph
(SW 9 kph)
- 10SM
09:53
Clear
91°F / 33°C 57°F / 14°C 32% 29.86 in
(1011 mb)
Variable 6.9 mph
(Variable 11 kph)
- 10SM
08:53
Clear
90°F / 32°C 54°F / 12°C 29% 29.86 in
(1011 mb)
NNW 4.6 mph
(NNW 7 kph)
- 10SM
07:53
Clear
86°F / 30°C 55°F / 13°C 35% 29.86 in
(1011 mb)
Variable 4.6 mph
(Variable 7 kph)
- 10SM
06:53
Clear
79°F / 26°C 57°F / 14°C 48% 29.86 in
(1011 mb)
N 3.5 mph
(N 6 kph)
- 10SM
05:53
Clear
73°F / 23°C 59°F / 15°C 61% 29.89 in
(1012 mb)
N 5.8 mph
(N 9 kph)
- 10SM
04:53
Clear
72°F / 22°C 55°F / 13°C 57% 29.86 in
(1011 mb)
Calm - 10SM
03:53
Clear
70°F / 21°C 57°F / 14°C 64% 29.86 in
(1011 mb)
NW 3.5 mph
(NW 6 kph)
- 10SM
02:53
Clear
70°F / 21°C 57°F / 14°C 64% 29.86 in
(1011 mb)
WNW 4.6 mph
(WNW 7 kph)
- 10SM
01:53
Clear
73°F / 23°C 55°F / 13°C 53% 29.86 in
(1011 mb)
Calm - 10SM
00:53
Clear
73°F / 23°C 55°F / 13°C 53% 29.86 in
(1011 mb)
ESE 3.5 mph
(ESE 6 kph)
- 10SM
Time Weather Temperature Dewpoint Humidity Pressure Winds Precip Visibility


Weather for websites

WeatherForYou.com, LLC is not responsible for any damages or problems caused by this service. Current weather conditions are obtained from the closest station including government and personal stations which may have varying degrees of accuracy. Weather forecasts are derived from the NOAA NDFD. Like all things, this site belongs to Jesus Christ... He just trusts us to maintain it. If you have any questions or comments email webmaster@weatherforyou.com

Copyright © 2015, WeatherForYou.com LLC. All rights reserved.